User: anonymous   Login
Location: *
(51.0333°S, 178.4667°E)
Time: 19:53:43
(UTC+00:00)
Language:

STARLINK-74 - Orbit

View from above orbital plane
View from above orbital plane
View from above satellite
View from above satellite

Ground track
Ground track

The orbit data is extracted from the following two-line orbital elements,

1 44293U 19029BL  20023.58334491  .00022683  00000-0  13150-2 0  9990
2 44293  53.0033 152.4355 0001354  82.9460  88.0920 15.12108514 38089
Epoch (UTC): 23 January 2020 14:00:01
Eccentricity: 0.0001354
inclination: 53.0033°
perigee height: 529 km
apogee height: 531 km
right ascension of ascending node: 152.4355°
argument of perigee: 82.9460°
revolutions per day: 15.12108514
mean anomaly at epoch: 88.0920°
orbit number at epoch: 3808

The dashed part of the orbit path shows where the satellite is in the earth's shadow,  

DLR